FENGYUN 1C DEB

Satellite information

Favourite Embed

Satellite Type and Status

DEBRISIN ORBIT

Key statistics

Satellite FENGYUN 1C DEB at a glance.

Uptime

9555

Days in orbit

Revolutions

≈ 13.6

Per day

Orbit

SSO

Sun Synchronous Orbit

Inclination

98.4

Latest

Satellite identification and parameters

Extended collection of information and parameters for FENGYUN 1C DEB.

Object identification

Identified? True

Debris? True

Object name: FENGYUN 1C DEB

International designator: 1999-025DXN

Object number (NORAD): 36644

Object ID (CCSDS): 36644

Country: PEOPLES REPUBLIC OF CHINA (PRC)

Current information (Y/N): Y

RCS size: SMALL

Orbital parameters

Period: 105.981 minutes

Inclination: 98.4082 deg

SMA: 7418.448 km

Apoapsis: 1251.456 km

Periapsis: 829.171 km

RAAN: 345.2685 deg

Eccentricy: 0.0284618

Argument of periapsis: 247.4924 deg

Mean anomaly: 109.5863 deg

Mean motion: 13.5872998 rev/day

Mean motion (dot): 0.00001065 rev/day2

B* drag term: 0.0011566 1/REarth

Two-line elements (TLE)

Creation date: July 3, 2025, 6:46 a.m.

Reference frame: TEME

Reference center: EARTH

Epoch: July 2, 2025, 9:53 p.m. UTC

TLE line 0: 0 FENGYUN 1C DEB

TLE line 1: 1 36644U 99025DXN 25183.91210738 .00001065 00000-0 11566-2 0 9991

TLE line 2: 2 36644 98.4082 345.2685 0284618 247.4924 109.5863 13.58729980775193

Live tracking on map

Real-time ground track for satellite FENGYUN 1C DEB.

In-orbit conjunctions

A list of the most updated potential collisions computed for object FENGYUN 1C DEB.

Target Orbit TCA Probability of collision Miss distance Type
SL-14 DEB LEO 2024-11-14 17:38:54 0.0001290754 730.0 (m) DEBRIS
SL-8 R/B LEO 2024-08-14 19:33:24 0.0002526303 163.0 (m) ROCKET BODY
COSMOS 2034 LEO 2024-07-06 15:46:21 0.0002849212 720.0 (m) PAYLOAD

Associated space launch

Chinese polar orbiting meteorological satellite

FENGYUN 1C DEB was lifted into orbit during the mission ‘Long March 4B | Feng Yun 1C’, on board a Long March 4B space rocket.

The launch took place on May 10, 1999, 1:33 a.m. from Launch Complex 7.

For more information about the launch, click the button.

Launch to space Long March 4B | Feng Yun 1C
Long March 4B | Feng Yun 1C

Agency: N/A

Status: Launch Successful

Launch date: May 10, 1999, 1:33 a.m. UTC

Rocket: Long March 4B

Launch pad: Launch Complex 7

Location: Taiyuan Satellite Launch Center, People's Republic of China

...

Latest news about this satellite

There are no fresh news available about this satellite. Check back as we update our databases every day.


Newsletter sign-up

Weekly statistics, charts and insights to help you stay on top of the space industry.